Location: Sternwarte auf dem Internationalen Platz Vogelsang IP
(50.5721°N, 6.4398°E)
Time: 05:36:51
(UTC+01:00)

Transit 2A Rocket - Pass Details

Date: 13 December 2025
Orbit: 581 x 903 km, 66.7° (Epoch: 13 January)

Event Time Altitude Azimuth Distance (km) Brightness Sun altitude
Rises 08:11:10 0° 179° (S) 3,281 8.8 -2.9°
Reaches altitude 10° 08:13:46 10° 169° (S) 2,406 8.3 -2.6°
Maximum altitude 08:18:32 29° 110° (ESE) 1,509 7.6 -2.0°
Drops below altitude 10° 08:23:34 10° 53° (NE) 2,555 7.9 -1.3°
Sets 08:26:24 0° 43° (NE) 3,521 8.5 -0.9°
